Regional Weather Roundup
Issued by NWS Charleston, WV

Home | Current Version | Previous Version | Graphics & Text | Print | Product List | Glossary Off
Versions: 1 2 3 4 5 6 7 8 9 10 11 12 13 14 15 16 17 18 19 20 21 22 23 24 25 26 27 28 29 30 31 32 33 34 35 36 37 38 39 40 41 42 43 44 45 46 47 48 49 50

000
ASUS41 KRLX 141510
RWRRLX
West Virginia Regional Weather Roundup
National Weather Service Charleston WV
1100 AM EDT MON JUL 14 2014

Note: "fair" indicates few or no clouds below 12,000 feet with no
significant weather and/or obstructions to visibility.

WVZ003-141600-
Northern Panhandle of West Virginia

CITY           SKY/WX    TMP DP  RH WIND       PRES   REMARKS
WHEELING       LGT RAIN  70  68  93 CALM      29.92S
$$

WVZ009-141600-
Northwest West Virginia

CITY           SKY/WX    TMP DP  RH WIND       PRES   REMARKS
PARKERSBURG    CLOUDY    72  70  93 SW10      29.96S FOG
$$

WVZ006-141600-
Western West Virginia

CITY           SKY/WX    TMP DP  RH WIND       PRES   REMARKS
HUNTINGTON     CLOUDY    73  70  90 SW6       29.98R FOG
$$

WVZ015-141600-
West Central West Virginia

CITY           SKY/WX    TMP DP  RH WIND       PRES   REMARKS
CHARLESTON     CLOUDY    77  72  84 W8        29.97R
$$

WVZ031-141600-
North Central West Virginia

CITY           SKY/WX    TMP DP  RH WIND       PRES   REMARKS
CLARKSBURG     LGT RAIN  73  69  87 S8        29.96F
MORGANTOWN     CLOUDY    74  69  85 S6        29.95F
$$

WVZ035-042-045-141600-
South Central West Virginia

CITY           SKY/WX    TMP DP  RH WIND       PRES   REMARKS
BECKLEY        PTSUNNY   77  64  64 SW14G20   30.07S
BLUEFIELD      PTSUNNY   79  65  62 W13       30.11S
LEWISBURG      PTSUNNY   79  66  63 SW8       30.06S
$$

WVZ047-141600-
Northern Mountains of West Virginia

CITY           SKY/WX    TMP DP  RH WIND       PRES   REMARKS
ELKINS         LGT RAIN  75  68  78 SW5       30.01F
$$

WVZ052-141600-
Eastern Panhandle of West Virginia

CITY           SKY/WX    TMP DP  RH WIND       PRES   REMARKS
MARTINSBURG    PTSUNNY   81  71  71 VRB3      29.93F
PETERSBURG     PTSUNNY   82  64  54 CALM      29.94S
$$



USA.gov is the U.S. government's official web portal to all federal, state and local government web resources and services.